Hourly Data Report for June 03, 2020

TRENTON A
ONTARIO
Current Station Operator: DND

44°07'00.000" N
77°32'00.000" W
86.30 m
6158875
71621
YTR

Download Data

Hourly Data (June 2020)
Hourly Data Report for June 3, 2020
TIME
LST
Temp Definition
°C
Dew Point Definition
°C
Rel Hum Definition
%
Precip. Amount Definition
mm

Wind Dir Definition
10's deg

Wind Spd Definition
km/h
Visibility Definition
km
Stn Press Definition
kPa
Hmdx Definition


Wind Chill Definition


Weather Definition


00:00 13.7 13.4 98   3 8 24.1 99.46     Mostly Cloudy
01:00 13.0 12.8 99   2 4 11.3 99.40     Mainly Clear
02:00 12.5 12.3 99   4 9 0.4 99.34     Fog
03:00 12.5 12.3 99   36 5 0.4 99.34     Fog
04:00 12.9 12.7 99     0 2.0 99.32     Fog
05:00 13.2 12.7 97     0 9.7 99.36     Fog
06:00 13.7 13.4 98   2 4 9.7 99.30     Fog
07:00 14.9 11.3 79   27 8 11.3 99.38     Cloudy
08:00 14.8 13.4 91   21 5 19.3 99.27     Rain Showers
09:00 15.7 14.6 93   4 8 19.3 99.17     Cloudy
10:00 17.7 14.9 84   22 8 24.1 99.24     Mostly Cloudy
11:00 15.6 12.7 83   22 15 24.1 99.26     Cloudy
12:00 19.0 15.0 78   27 11 24.1 99.21     Cloudy
13:00 21.6 16.7 74   28 15 24.1 99.21 27   Cloudy
14:00 23.2 16.9 68   31 11 24.1 99.20 28   Mostly Cloudy
15:00 21.7 16.7 73   21 15 24.1 99.17 27   Mostly Cloudy
16:00 23.0 14.6 59   22 9 24.1 99.13 27   Mainly Clear
17:00 25.6 14.7 51   30 24 24.1 99.15 29   Mainly Clear
18:00 22.8 14.8 61   36 11 24.1 99.21 27   Mainly Clear
19:00 22.4 15.5 65   29 5 24.1 99.27 27   Mainly Clear
20:00 21.4 12.4 57   31 13 24.1 99.34     Clear
21:00 20.1 13.1 64   30 11 24.1 99.42     Clear
22:00 18.8 13.5 71   36 13 24.1 99.51     Clear
23:00 17.3 13.6 79   35 8 24.1 99.58     Clear

Notes on Data Quality.

Legend

  • E = Estimated
  • M = Missing
  • NA = Not Available*
  • [empty] = Indicates an unobserved value
Date modified: